• In Lithuania
  • List of Countries
  • For 7 days
  • Water Temperature
  • Satellite Maps
  • Weather Map
  • Weather Widgets
  • user-avatar
    Login

    Hourly Weather Hobart

    Today, 19 February, Monday

    Time Temperature Precipitation Wind Pressure Humidity
    00:00 +9°C° 0 mm 3 mps 751 mmHg 83%
    01:00 +8°C° 0 mm 3 mps 751 mmHg 85%
    02:00 +8°C° 0 mm 3 mps 751 mmHg 87%
    03:00 +7°C° 0 mm 3 mps 752 mmHg 89%
    04:00 +7°C° 0 mm 3 mps 752 mmHg 92%
    05:00 +7°C° 0 mm 3 mps 752 mmHg 88%
    06:00 +8°C° 0 mm 3 mps 753 mmHg 83%
    07:00 +9°C° 0 mm 3 mps 753 mmHg 78%
    08:00 +11°C° 0 mm 3 mps 754 mmHg 69%
    09:00 +13°C° 0 mm 3 mps 754 mmHg 60%
    10:00 +14°C° 0 mm 3 mps 754 mmHg 51%
    11:00 +16°C° 0 mm 3 mps 754 mmHg 49%
    12:00 +17°C° 0 mm 3 mps 754 mmHg 46%
    13:00 +18°C° 0 mm 4 mps 754 mmHg 43%
    14:00 +18°C° 0 mm 4 mps 754 mmHg 44%
    15:00 +18°C° 0 mm 4 mps 754 mmHg 45%
    16:00 +18°C° 0 mm 4 mps 754 mmHg 46%
    17:00 +16°C° 0 mm 3 mps 754 mmHg 54%
    18:00 +13°C° 0 mm 3 mps 755 mmHg 61%
    19:00 +12°C° 0 mm 3 mps 755 mmHg 69%
    20:00 +10°C° 0 mm 2 mps 755 mmHg 77%
    21:00 +8°C° 0 mm 2 mps 756 mmHg 86%
    22:00 +7°C° 0 mm 2 mps 756 mmHg 95%
    23:00 +8°C° 0 mm 1 mps 756 mmHg 96%

    Tomorrow, 20 February, Tuesday

    Time Temperature Precipitation Wind Pressure Humidity
    00:00 +7°C° 0 mm 1 mps 756 mmHg 96%
    01:00 +7°C° 0 mm 1 mps 756 mmHg 97%
    02:00 +7°C° 0 mm 1 mps 756 mmHg 97%
    03:00 +7°C° 0 mm 1 mps 756 mmHg 97%
    04:00 +7°C° 0 mm 1 mps 756 mmHg 98%
    05:00 +8°C° 0 mm 1 mps 756 mmHg 95%
    06:00 +8°C° 0 mm 1 mps 756 mmHg 92%
    07:00 +9°C° 0 mm 1 mps 756 mmHg 88%
    08:00 +12°C° 0 mm 1 mps 756 mmHg 75%
    09:00 +15°C° 0 mm 2 mps 756 mmHg 62%
    10:00 +18°C° 0 mm 2 mps 756 mmHg 49%
    11:00 +19°C° 0 mm 2 mps 755 mmHg 45%
    12:00 +21°C° 0 mm 3 mps 755 mmHg 42%
    13:00 +22°C° 0 mm 3 mps 755 mmHg 38%
    14:00 +22°C° 0 mm 3 mps 754 mmHg 40%
    15:00 +21°C° 0 mm 3 mps 754 mmHg 42%
    16:00 +21°C° 0 mm 3 mps 753 mmHg 44%
    17:00 +19°C° 0 mm 3 mps 753 mmHg 53%
    18:00 +17°C° 0 mm 3 mps 753 mmHg 63%
    19:00 +13°C° 0 mm 3 mps 753 mmHg 72%
    20:00 +12°C° 0 mm 3 mps 753 mmHg 80%
    21:00 +10°C° 0 mm 3 mps 753 mmHg 88%
    22:00 +9°C° 0 mm 3 mps 753 mmHg 95%
    23:00 +8°C° 0 mm 3 mps 753 mmHg 96%

    Day after tomorrow, 21 February, Wednesday

    Time Temperature Precipitation Wind Pressure Humidity
    00:00 +8°C° 0 mm 2 mps 753 mmHg 97%
    01:00 +8°C° 0 mm 2 mps 752 mmHg 97%
    02:00 +8°C° 0 mm 2 mps 752 mmHg 96%
    03:00 +8°C° 0 mm 2 mps 752 mmHg 95%
    04:00 +8°C° 0 mm 2 mps 752 mmHg 94%
    05:00 +9°C° 0 mm 2 mps 752 mmHg 90%
    06:00 +10°C° 0 mm 2 mps 752 mmHg 85%
    07:00 +12°C° 0 mm 2 mps 752 mmHg 81%
    08:00 +15°C° 0 mm 2 mps 752 mmHg 70%
    09:00 +18°C° 0 mm 2 mps 752 mmHg 59%
    10:00 +21°C° 0 mm 2 mps 752 mmHg 48%
    11:00 +23°C° 0 mm 2 mps 751 mmHg 42%
    12:00 +25°C° 0 mm 2 mps 751 mmHg 37%
    13:00 +26°C° 0 mm 2 mps 751 mmHg 32%
    14:00 +26°C° 0 mm 2 mps 751 mmHg 34%
    15:00 +25°C° 0 mm 3 mps 750 mmHg 35%
    16:00 +25°C° 0 mm 3 mps 750 mmHg 37%
    17:00 +22°C° 0 mm 3 mps 750 mmHg 46%
    18:00 +20°C° 0 mm 2 mps 750 mmHg 54%
    19:00 +18°C° 0 mm 2 mps 750 mmHg 63%
    20:00 +16°C° 0 mm 2 mps 750 mmHg 70%
    21:00 +15°C° 0 mm 1 mps 751 mmHg 78%
    22:00 +13°C° 0 mm 1 mps 751 mmHg 85%
    23:00 +13°C° 0 mm 1 mps 751 mmHg 86%

    22 February, Thursday

    Time Temperature Precipitation Wind Pressure Humidity
    00:00 +13°C° 0 mm 1 mps 751 mmHg 87%
    01:00 +12°C° 0 mm 1 mps 750 mmHg 88%
    02:00 +12°C° 0 mm 1 mps 750 mmHg 88%
    03:00 +12°C° 0 mm 1 mps 750 mmHg 88%
    04:00 +12°C° 0 mm 1 mps 750 mmHg 88%
    05:00 +13°C° 0 mm 1 mps 750 mmHg 83%
    06:00 +14°C° 0 mm 1 mps 751 mmHg 78%
    07:00 +14°C° 0 mm 1 mps 751 mmHg 73%
    08:00 +19°C° 0 mm 1 mps 751 mmHg 61%
    09:00 +23°C° 0 mm 1 mps 751 mmHg 49%
    10:00 +27°C° 0 mm 1 mps 751 mmHg 37%
    11:00 +28°C° 0 mm 2 mps 750 mmHg 33%
    12:00 +29°C° 0 mm 2 mps 750 mmHg 30%
    13:00 +30°C° 0 mm 3 mps 750 mmHg 26%
    14:00 +30°C° 0 mm 3 mps 749 mmHg 28%
    15:00 +30°C° 0 mm 3 mps 749 mmHg 29%
    16:00 +29°C° 0 mm 4 mps 748 mmHg 31%
    17:00 +27°C° 0 mm 3 mps 748 mmHg 41%
    18:00 +24°C° 0 mm 3 mps 748 mmHg 51%
    19:00 +21°C° 0 mm 3 mps 749 mmHg 61%
    20:00 +19°C° 0 mm 2 mps 749 mmHg 70%
    21:00 +17°C° 0 mm 2 mps 749 mmHg 79%
    22:00 +15°C° 0 mm 2 mps 749 mmHg 88%
    23:00 +15°C° 0 mm 2 mps 748 mmHg 88%

    23 February, Friday

    Time Temperature Precipitation Wind Pressure Humidity
    00:00 +16°C° 0 mm 2 mps 748 mmHg 88%
    01:00 +16°C° 0 mm 2 mps 747 mmHg 88%
    02:00 +16°C° 0 mm 3 mps 747 mmHg 86%
    03:00 +16°C° 0 mm 3 mps 747 mmHg 84%
    04:00 +16°C° 0 mm 3 mps 746 mmHg 83%
    05:00 +17°C° 0 mm 3 mps 746 mmHg 82%
    06:00 +17°C° 0 mm 3 mps 746 mmHg 82%
    07:00 +17°C° 0 mm 3 mps 746 mmHg 81%
    08:00 +18°C° 0.2 mm 3 mps 746 mmHg 82%
    09:00 +19°C° 0.2 mm 3 mps 746 mmHg 83%
    10:00 +19°C° 0.2 mm 2 mps 746 mmHg 84%
    11:00 +20°C° 0.3 mm 3 mps 745 mmHg 82%
    12:00 +21°C° 0.3 mm 3 mps 744 mmHg 80%
    13:00 +22°C° 0.3 mm 3 mps 744 mmHg 78%
    14:00 +21°C° 0.2 mm 2 mps 743 mmHg 77%
    15:00 +21°C° 0.2 mm 2 mps 742 mmHg 76%
    16:00 +21°C° 0.2 mm 2 mps 742 mmHg 75%
    17:00 +21°C° 0 mm 2 mps 741 mmHg 76%
    18:00 +21°C° 0 mm 2 mps 741 mmHg 78%
    19:00 +20°C° 0 mm 2 mps 741 mmHg 79%
    20:00 +20°C° 0.1 mm 2 mps 741 mmHg 83%
    21:00 +19°C° 0.1 mm 2 mps 740 mmHg 87%
    22:00 +18°C° 0.1 mm 2 mps 740 mmHg 91%
    23:00 +18°C° 0.6 mm 2 mps 740 mmHg 91%

    24 February, Saturday

    Time Temperature Precipitation Wind Pressure Humidity
    00:00 +18°C° 0.6 mm 2 mps 739 mmHg 92%
    01:00 +18°C° 0.6 mm 2 mps 738 mmHg 93%
    02:00 +17°C° 0.2 mm 2 mps 737 mmHg 94%
    03:00 +17°C° 0.2 mm 2 mps 737 mmHg 94%
    04:00 +18°C° 0.2 mm 1 mps 736 mmHg 95%
    05:00 +19°C° 0.1 mm 1 mps 735 mmHg 95%
    06:00 +19°C° 0.1 mm 1 mps 735 mmHg 94%
    07:00 +19°C° 0.1 mm 1 mps 734 mmHg 93%
    08:00 +20°C° 0 mm 2 mps 734 mmHg 87%
    09:00 +21°C° 0 mm 2 mps 734 mmHg 81%
    10:00 +24°C° 0 mm 3 mps 734 mmHg 75%
    11:00 +24°C° 0.1 mm 3 mps 734 mmHg 71%
    12:00 +23°C° 0.1 mm 4 mps 734 mmHg 68%
    13:00 +23°C° 0.1 mm 4 mps 733 mmHg 65%
    14:00 +22°C° 0 mm 5 mps 733 mmHg 65%
    15:00 +21°C° 0 mm 5 mps 733 mmHg 65%
    16:00 +20°C° 0 mm 6 mps 733 mmHg 65%
    17:00 +17°C° 0.2 mm 6 mps 733 mmHg 71%
    18:00 +15°C° 0.2 mm 6 mps 734 mmHg 77%
    19:00 +14°C° 0.2 mm 6 mps 734 mmHg 83%
    20:00 +13°C° 0 mm 6 mps 734 mmHg 82%
    21:00 +11°C° 0 mm 6 mps 735 mmHg 81%
    22:00 +10°C° 0 mm 6 mps 735 mmHg 81%
    23:00 +10°C° 0 mm 7 mps 735 mmHg 78%
    Show more